Lapse_Rate
7.2 7.4 7.4 7.4 7.4 7.6 7.7 7.3 7.0 7.2 7.4 7.3 7.0 6.8 6.4 6.1 5.9 5.7 5.9 5.8 5.8 5.8 5.3 4.5 4.6 4.4 4.0 4.1 5.2 6.0 6.5 7.0 7.1 7.1 7.3 7.4 7.2 7.1 7.5 7.1 6.9 6.1 6.3 6.3
7.5 7.8 7.9 7.4 7.5 7.7 7.7 7.6 7.4 7.5 8.0 7.4 7.2 6.9 6.4 5.9 5.8 5.5 5.5 5.4 5.3 5.3 5.5 5.0 4.3 4.4 4.0 3.7 4.2 4.7 6.0 7.1 7.4 7.6 7.4 7.6 7.5 7.2 7.3 7.4 7.2 6.4 6.2 6.6
7.4 7.7 7.6 7.4 7.6 7.6 7.5 7.4 7.5 7.7 7.5 7.6 7.4 7.1 6.5 5.8 5.6 5.4 5.1 5.1 5.0 4.8 5.0 4.7 4.4 4.3 4.2 4.0 3.9 4.0 5.1 6.0 7.2 7.8 7.7 7.8 7.6 7.4 7.4 7.3 7.4 7.0 6.6 6.0
6.9 7.0 5.6 7.7 7.5 7.6 7.6 7.7 7.6 7.6 7.5 7.6 7.2 7.3 6.7 6.3 5.5 5.3 5.1 4.7 4.7 4.6 4.6 4.5 4.3 4.4 4.2 4.2 4.0 4.2 4.7 5.3 6.3 7.3 8.4 8.2 7.8 7.5 7.3 7.3 7.1 7.0 7.0 6.7
6.5 7.0 7.2 7.1 7.6 7.9 7.9 8.1 8.0 7.5 7.6 7.1 7.0 7.1 7.3 6.6 6.0 5.4 5.1 4.9 4.5 4.6 4.5 4.5 4.5 4.8 4.9 4.7 4.2 4.1 4.4 4.7 5.3 6.4 7.7 8.4 7.6 7.5 7.0 7.0 7.1 6.7 6.8 6.6
6.1 6.4 5.1 7.6 7.9 7.9 7.7 7.8 8.0 7.6 7.2 6.8 6.8 6.9 7.1 6.9 6.6 5.9 5.0 4.9 4.7 4.7 4.7 4.8 4.9 4.9 5.1 4.9 4.6 4.1 4.4 4.3 4.4 4.8 5.7 6.9 7.3 7.1 7.2 6.6 7.1 7.1 6.7 7.0
5.7 5.7 6.6 7.0 7.2 7.4 7.2 8.1 7.9 7.2 6.8 6.6 6.8 6.8 6.9 6.8 6.8 6.1 5.4 4.9 4.9 4.9 5.0 4.8 4.8 5.0 5.0 5.1 4.7 4.7 4.3 4.3 4.3 4.6 4.6 5.2 6.0 6.3 6.7 6.8 6.6 6.9 7.2 6.9
5.2 5.4 5.8 5.8 6.4 6.9 7.3 7.7 7.5 6.8 6.6 6.5 6.6 6.6 6.7 6.7 6.4 6.3 5.9 5.2 5.0 5.2 5.3 5.1 4.8 4.9 4.9 5.1 5.1 4.6 4.8 4.6 4.3 4.2 4.4 4.3 4.9 5.3 5.4 5.6 5.6 5.6 6.7 6.9
5.2 5.6 5.6 5.8 5.9 6.2 6.5 6.8 6.6 6.4 6.4 6.3 6.3 6.4 6.5 6.4 6.1 6.1 6.1 6.0 5.4 5.2 5.4 5.4 5.4 5.2 5.1 5.0 5.4 5.1 4.9 4.6 4.4 4.3 4.0 4.1 4.2 5.2 4.8 5.0 5.6 5.5 5.8 6.2
4.5 5.4 5.5 5.6 5.9 6.0 6.1 5.9 6.0 6.1 6.2 6.1 6.0 6.2 6.1 6.0 5.8 5.8 6.0 6.5 6.4 5.8 5.6 5.4 5.3 5.2 5.2 5.3 5.2 5.5 5.1 4.8 5.1 5.0 4.4 4.2 4.1 3.8 3.7 4.4 4.9 5.3 5.4 5.7
4.5 5.1 5.2 5.5 5.7 5.7 5.9 6.1 6.2 6.2 6.2 6.1 6.1 5.9 5.6 5.6 5.6 5.9 6.2 6.6 6.7 6.6 6.0 5.5 5.2 5.2 5.0 5.0 5.2 5.2 5.2 4.9 5.5 5.5 4.7 4.2 4.2 4.3 3.7 3.1 3.6 4.4 5.0 5.2
4.5 4.6 4.7 5.0 5.2 5.3 5.4 5.4 5.5 5.5 5.7 6.0 6.0 5.8 5.5 5.5 5.8 6.2 6.5 6.7 6.8 6.7 6.6 6.1 5.5 5.2 5.0 5.0 5.0 5.0 5.0 5.1 5.3 5.6 5.0 4.5 4.4 4.0 3.7 4.0 4.0 3.4 3.4 4.2
4.0 4.2 4.7 4.7 4.8 4.9 5.0 5.3 5.3 5.3 5.4 5.4 5.5 5.8 5.8 5.8 6.1 6.3 6.4 6.5 6.6 6.7 6.7 6.6 6.3 5.6 5.1 4.9 4.8 4.6 4.7 4.7 4.9 5.0 4.7 4.4 3.9 4.0 3.9 3.8 4.0 3.6 3.6 3.1
4.0 4.0 4.6 4.7 4.9 5.1 5.0 5.2 5.3 5.4 5.3 5.2 5.3 5.5 6.1 6.4 6.3 6.3 6.4 6.4 6.5 6.6 6.6 6.6 6.3 6.0 5.4 4.8 4.4 4.4 4.3 4.4 4.5 4.7 4.6 4.9 4.7 4.3 3.9 3.5 3.4 3.8 3.4 3.3
4.3 4.0 4.7 5.1 5.0 5.1 5.3 5.6 5.8 5.7 5.5 5.4 5.5 5.6 5.5 5.8 6.2 6.3 6.2 6.3 6.1 6.2 6.0 5.9 6.0 5.9 5.8 5.5 4.9 4.3 4.1 4.3 4.4 4.5 4.5 4.3 4.3 4.5 4.2 3.8 3.5 3.6 3.3 3.0
4.3 4.2 4.6 5.2 5.6 5.6 5.6 5.7 5.7 5.8 5.8 5.7 5.6 5.6 5.6 5.6 5.5 5.6 5.6 5.8 5.9 6.0 5.9 5.8 5.7 5.5 5.6 5.6 5.5 5.0 4.3 4.0 4.2 4.2 4.2 4.2 4.2 4.0 4.0 4.1 4.0 3.5 3.4 3.1
4.4 4.2 4.5 4.9 5.7 5.8 5.7 5.7 5.8 5.9 6.0 5.9 5.8 5.7 5.5 5.4 5.3 5.3 5.4 5.3 5.2 5.2 5.3 5.4 5.4 5.5 5.5 5.4 5.3 5.3 5.2 4.7 4.2 4.0 3.7 3.5 3.7 4.1 3.9 3.7 3.9 3.5 3.3 3.3
4.3 4.5 4.7 5.1 5.7 5.8 5.9 5.8 6.0 6.1 6.0 6.1 6.0 5.7 5.4 5.3 5.2 5.0 5.1 5.0 4.7 4.6 4.6 4.7 4.8 5.0 5.0 5.1 5.2 5.1 5.2 5.2 5.0 4.5 4.2 4.1 3.8 3.7 3.8 3.8 3.6 3.7 3.6 3.5
4.3 4.5 5.1 5.3 5.3 5.8 6.0 6.2 6.1 6.3 6.4 6.4 6.2 6.1 5.7 5.2 5.0 5.0 4.8 4.6 4.5 4.5 4.5 4.5 4.4 4.3 4.4 4.5 4.9 5.1 5.2 5.1 5.0 5.0 4.8 4.4 4.0 3.8 3.7 3.4 3.6 3.5 3.4 3.1
4.6 4.7 5.3 5.3 5.2 5.7 6.2 6.4 6.5 6.6 6.7 6.6 6.4 6.1 5.8 5.6 5.4 5.1 4.8 4.6 4.5 4.4 4.2 4.2 4.2 4.1 4.1 4.4 4.8 4.9 5.2 5.3 5.3 5.2 4.9 4.7 4.5 4.3 3.9 3.8 3.3 3.2 3.1 3.2
4.7 5.0 5.3 5.4 5.4 5.5 6.2 6.6 6.9 6.8 6.8 6.9 6.6 6.3 6.1 5.9 5.6 5.2 4.9 4.9 4.7 4.6 4.4 4.3 4.3 4.3 4.3 4.5 5.0 5.2 5.1 5.2 5.1 5.3 5.3 5.1 4.7 4.4 4.2 4.0 3.7 3.4 3.0 2.8
4.8 5.1 5.2 5.5 5.6 5.5 6.1 6.8 6.9 7.0 7.0 7.0 6.9 6.6 6.2 6.1 5.9 5.7 5.4 4.9 4.7 4.6 4.5 4.6 4.7 4.6 4.4 4.5 4.7 5.1 5.5 5.4 5.3 5.2 5.2 5.3 5.3 5.2 4.9 4.5 4.3 4.1 3.9 3.5
4.9 5.0 5.2 5.5 5.7 5.7 6.0 6.8 7.1 7.1 7.1 7.3 7.2 7.0 6.8 6.7 6.4 6.0 5.8 5.4 4.9 4.7 4.7 4.7 4.7 4.9 4.8 4.8 4.9 4.9 5.2 5.6 5.7 5.7 5.6 5.5 5.4 5.3 5.3 5.4 5.3 5.0 4.7 4.4
4.8 4.9 5.1 5.3 5.8 5.9 6.0 6.5 7.2 7.3 7.2 7.4 7.4 7.2 7.1 7.0 6.7 6.5 6.2 5.8 5.5 5.2 5.0 4.9 4.9 5.1 5.3 5.3 5.3 5.3 5.2 5.5 6.0 6.1 6.0 6.0 5.9 5.7 5.4 5.2 5.1 5.1 5.0 4.9
4.6 4.8 5.1 5.3 5.9 6.1 6.1 6.4 7.0 7.3 7.4 7.4 7.5 7.4 7.4 7.3 7.0 6.8 6.6 6.3 6.1 5.8 5.5 5.4 5.3 5.3 5.3 5.4 5.5 5.6 5.6 5.6 6.1 6.5 6.5 6.4 6.2 6.0 6.0 5.9 5.5 5.2 4.9 4.8
4.4 4.7 5.1 5.4 5.7 6.1 6.2 6.3 6.8 7.3 7.4 7.5 7.5 7.6 7.6 7.5 7.3 7.1 6.9 6.7 6.5 6.4 6.2 6.0 5.9 5.7 5.7 5.7 5.5 5.5 5.5 5.5 5.6 6.4 6.5 6.4 6.4 6.4 6.4 6.3 6.1 5.8 5.5 5.1
4.4 4.6 5.1 5.3 5.6 6.0 6.2 6.2 6.6 7.2 7.4 7.5 7.5 7.6 7.7 7.6 7.4 7.2 7.0 6.8 6.8 6.8 6.6 6.4 6.3 6.2 6.2 6.1 6.0 5.7 5.6 5.5 5.7 6.2 6.4 6.4 6.4 6.5 6.7 6.8 6.8 6.7 6.4 6.0
Wind_Speed
4 3 3 3 3 6 5 4 4 5 3 8 9 8 9 9 10 12 12 14 15 15 14 13 15 13 13 14 15 17 18 17 17 17 17 17 16 14 14 14 13 14 16 18
7 7 4 2 0 2 3 1 2 4 6 6 8 6 6 10 10 12 12 12 14 15 15 14 15 14 14 15 15 14 17 18 18 18 18 18 17 17 15 14 14 12 17 17
3 3 3 4 3 2 3 3 5 1 8 4 7 9 7 8 10 11 11 11 11 12 14 13 15 14 14 14 12 12 13 16 17 18 18 18 18 18 17 16 15 16 12 14
2 3 2 6 2 4 6 5 6 4 6 7 7 6 9 8 5 10 10 9 10 9 11 12 12 12 11 11 11 12 13 15 17 17 18 16 18 17 17 15 15 13 15 15
2 2 3 2 3 5 6 7 4 5 7 7 6 5 7 8 5 6 7 9 8 10 11 11 11 12 11 12 11 11 11 12 15 17 18 20 19 18 16 15 15 15 13 14
2 0 3 5 5 3 3 5 6 4 7 6 5 6 4 8 7 8 9 8 10 12 11 11 11 11 11 11 12 12 11 10 11 15 17 19 17 18 15 14 14 12 12 9
2 3 7 5 2 4 3 6 4 4 7 6 2 5 8 10 7 5 6 9 13 13 11 12 13 13 14 12 15 12 10 11 12 13 15 17 18 16 17 15 13 13 11 9
2 3 4 3 2 4 5 4 5 5 4 5 7 9 8 7 7 8 9 9 10 11 11 11 12 12 12 12 14 14 13 11 12 12 10 13 18 14 16 15 14 12 12 9
5 5 3 1 5 4 4 5 5 4 6 5 7 6 7 6 7 7 9 8 10 9 11 11 12 11 12 13 14 14 13 13 12 12 11 12 14 12 10 13 12 11 9 9
2 3 7 8 7 7 10 5 5 5 6 5 6 7 6 7 7 8 7 9 9 10 9 12 11 12 12 12 13 13 12 11 11 12 13 11 10 10 6 8 9 9 10 10
4 7 6 7 7 9 6 3 4 6 5 7 6 6 5 6 7 7 8 9 8 9 10 12 12 12 12 13 13 13 12 11 11 9 10 10 9 9 8 4 7 9 9 8
4 8 5 6 1 2 1 3 6 4 5 6 4 6 6 6 5 6 9 9 10 11 12 12 12 12 13 13 13 12 11 9 9 8 8 8 8 8 9 12 10 9 11 12
5 1 3 3 2 2 3 5 5 5 4 5 6 5 5 4 5 12 8 10 11 12 12 11 12 12 12 12 12 12 10 10 7 9 8 8 8 8 8 8 9 11 17 14
4 4 1 1 3 6 5 6 5 4 4 5 5 5 5 5 7 9 10 10 10 11 11 11 10 11 13 13 14 12 11 11 8 8 7 8 8 8 7 7 8 9 13 14
6 6 6 4 4 5 3 3 4 4 5 6 5 5 6 6 8 9 10 10 10 9 10 11 12 12 13 12 12 11 9 8 9 7 7 7 7 7 7 7 7 7 7 10
8 6 5 5 1 1 2 4 4 5 5 4 4 5 6 6 6 8 9 10 10 9 11 11 12 13 13 11 12 9 9 12 10 7 7 7 7 7 7 7 7 7 7 7
5 6 4 3 3 1 1 3 4 4 3 4 5 5 6 7 7 8 9 9 9 10 10 11 12 14 12 12 12 8 7 8 9 6 6 6 5 5 6 5 5 5 5 6
7 4 5 5 5 4 3 2 2 3 3 4 5 6 6 8 8 9 9 9 10 10 11 13 14 14 13 13 13 10 8 6 6 6 6 6 6 5 4 5 5 6 7 8
7 8 7 7 6 4 3 2 2 3 3 3 5 4 6 7 7 8 7 9 11 12 12 13 16 14 12 15 14 9 8 7 7 6 6 7 6 6 6 7 7 7 8 8
7 7 7 6 5 4 4 3 3 3 3 3 3 4 4 4 4 4 8 9 10 7 10 14 14 12 13 14 15 9 10 11 10 9 9 9 9 9 8 11 10 10 10 10
9 8 7 6 5 5 5 4 4 3 3 3 4 2 2 2 3 2 6 5 9 9 10 12 11 10 9 11 10 10 10 9 9 9 9 9 9 9 9 10 10 10 10 10
8 8 7 7 6 5 4 4 5 4 4 3 2 3 3 5 4 4 3 5 5 6 6 7 7 11 10 13 9 9 10 10 9 8 8 9 9 9 9 9 9 9 8 8
9 8 8 8 8 6 5 5 5 4 5 4 2 2 2 2 2 2 2 5 4 5 5 6 8 10 9 7 7 9 10 10 9 9 8 8 8 8 8 9 8 8 8 9
9 9 8 7 8 7 6 5 5 5 4 4 3 2 2 1 1 2 2 3 5 5 4 6 7 8 7 6 6 6 6 7 8 8 8 9 7 7 8 7 7 8 7 8
10 10 9 9 10 7 7 6 5 5 5 4 3 2 3 2 2 1 2 2 4 4 4 5 6 5 5 4 5 5 5 5 6 6 7 6 7 6 6 6 6 7 7 6
12 9 9 11 8 6 6 6 4 4 4 3 3 2 2 2 1 1 1 3 3 4 3 4 3 2 3 5 4 4 4 5 5 5 5 6 7 7 7 7 6 6 6 5
8 9 6 5 4 6 6 6 5 4 5 4 3 3 2 2 2 1 1 1 2 2 2 3 3 3 4 4 4 4 4 4 4 4 4 4 4 5 6 7 6 8 9 8
Wind_Direction
175 192 36 237 42 50 73 199 113 264 234 275 284 289 288 297 312 326 335 337 341 340 337 328 333 336 340 340 343 347 351 355 358 350 345 346 350 343 328 324 307 213 217 214
204 168 232 173 106 66 42 123 274 230 274 223 284 283 305 306 318 323 329 330 334 340 340 329 326 335 342 340 344 340 345 356 356 355 350 350 349 345 341 330 320 303 221 217
283 153 177 316 232 216 228 198 175 181 239 288 300 310 290 296 309 311 318 325 327 340 336 327 324 329 335 329 330 336 342 351 359 355 352 354 348 348 345 334 322 314 275 216
297 93 347 240 126 192 190 246 231 267 265 257 253 265 279 284 265 303 317 317 325 328 328 325 324 323 319 326 327 335 351 349 354 355 355 350 355 348 343 335 320 302 296 247
102 271 255 142 175 200 200 269 241 242 271 278 286 314 296 294 298 292 302 318 314 323 326 321 326 326 325 329 328 333 347 350 355 355 357 351 354 348 345 337 324 309 297 265
1 312 249 241 226 219 126 288 229 245 280 279 328 341 265 310 321 307 317 320 329 326 325 326 326 328 328 334 336 327 335 336 352 356 360 355 345 348 344 345 331 320 318 321
238 223 288 267 272 120 254 249 280 282 283 284 243 225 275 305 309 304 314 318 329 330 329 330 332 338 339 340 346 336 326 345 349 1 359 358 348 349 349 348 346 336 332 8
323 20 317 205 251 247 230 273 259 281 268 281 272 288 296 310 312 319 321 324 326 328 330 334 340 343 345 349 342 345 344 340 345 346 353 359 354 346 352 356 352 348 344 7
193 228 274 292 268 276 277 239 277 280 282 280 291 287 302 308 313 311 316 320 325 324 325 344 339 347 347 341 343 343 351 343 343 347 350 354 355 346 354 358 358 348 343 10
295 247 248 232 247 253 268 250 284 274 287 288 287 307 315 313 310 319 318 326 329 329 333 336 340 338 336 338 341 342 344 343 342 353 350 348 354 351 347 1 355 353 352 5
244 278 296 272 240 242 241 310 320 315 291 292 307 321 302 306 309 318 324 329 328 331 331 331 335 335 336 339 343 344 345 342 345 348 344 343 343 359 341 336 359 0 351 348
236 258 233 264 323 65 348 293 304 299 305 325 320 308 307 312 313 321 328 331 332 331 333 331 335 337 341 341 340 340 341 341 343 337 345 338 340 345 342 341 332 329 346 2
235 263 218 199 45 359 318 293 293 316 335 322 321 316 313 316 323 334 328 332 333 331 329 334 341 344 342 338 337 339 335 334 337 338 339 339 342 342 348 346 1 339 341 341
220 164 255 192 256 288 296 307 338 348 337 330 318 334 347 337 329 329 331 330 330 329 336 345 353 357 350 1 359 344 336 335 340 333 332 338 338 346 353 351 352 352 356 342
216 202 203 235 278 312 323 348 354 333 326 328 349 360 346 335 333 331 328 332 332 339 2 358 350 349 346 347 351 342 346 339 336 334 333 328 334 340 349 352 355 350 358 5
211 225 240 228 260 147 352 354 338 315 328 346 357 347 340 332 330 333 335 344 356 20 354 351 345 340 336 345 339 332 331 330 336 335 336 342 345 347 349 350 356 355 359 355
190 233 235 207 191 188 235 279 292 324 356 359 355 358 355 356 351 351 351 25 11 1 357 351 345 338 339 340 337 326 319 317 319 321 332 335 333 342 343 341 347 347 342 340
204 189 181 167 178 190 251 311 2 23 8 17 26 14 16 17 12 12 7 16 2 356 4 353 346 341 338 337 333 333 327 315 316 321 323 328 331 333 340 343 338 343 343 347
169 164 160 159 172 187 173 146 96 62 40 30 34 14 31 23 14 16 14 20 16 2 352 350 344 349 348 354 348 341 329 324 322 326 330 334 344 352 0 1 357 359 355 356
155 153 153 160 174 167 153 135 117 90 64 46 53 33 16 344 349 8 21 35 25 358 351 357 355 356 356 357 357 1 4 10 15 20 25 25 17 14 12 15 13 11 5 7
163 162 168 171 164 150 148 144 135 123 105 63 53 24 325 340 18 42 31 25 19 5 360 357 5 0 359 359 9 9 10 14 18 16 16 14 14 14 14 13 14 13 5 4
160 170 176 168 160 159 160 147 137 136 126 94 41 28 39 35 21 33 65 18 355 4 7 7 5 0 0 2 10 13 15 16 16 17 18 16 13 10 6 7 8 10 5 358
168 175 169 168 170 168 157 155 151 149 142 145 142 92 63 58 28 10 357 10 4 2 14 13 359 358 3 13 11 11 9 13 14 12 13 12 10 5 6 4 1 3 360 355
170 170 175 162 147 155 167 175 162 155 149 144 149 165 157 94 29 14 351 350 359 346 12 7 360 355 4 14 11 10 15 9 7 3 5 4 3 359 359 356 355 354 355 352
172 169 163 164 174 184 170 168 161 164 157 160 162 138 147 156 166 284 5 344 9 3 2 341 343 343 7 11 6 357 360 10 2 359 354 354 351 348 341 344 342 341 339 340
170 177 178 183 184 172 170 165 175 175 154 158 168 183 186 173 129 32 4 359 357 355 353 328 324 325 342 355 348 344 349 350 353 345 338 339 337 334 326 325 323 324 316 314
174 163 159 158 170 175 175 175 168 183 175 169 173 188 196 198 188 193 347 6 338 323 323 321 320 323 331 318 316 328 327 321 303 305 299 297 300 290 298 303 307 308 310 309